Powrót do katalogu

STARLINK-36856

AktywnyŁącznośćSSO
NORAD 67883·PAYLOAD·🇺🇸 United States

Wystrzelony Feb 21, 2026 z Vandenberg Space Force Base

Loading…

Następne Przeloty (najbliższe 24 godziny)

TLE

ŚwieżeSource: CelesTrak SupGP

Epoka: Sep 15, 2026, 03:34 UTC

1 67883C 26035E   26258.14909722  .00095686  00000+0  29703-2 0  2589
2 67883  97.2851 190.0529 0001965  97.6646 188.4943 15.33389654    16

Śledź STARLINK-36856 w czasie rzeczywistym z AllMySat

Download on the App Store